User: anonymous   Login
Location: Aboncourt
(47.7710°N, 5.9826°E)
Time: 08:59:26
(UTC+00:00)
Language:

IRIDIUM 104 - Orbit

View from above orbital plane
View from above orbital plane
View from above satellite
View from above satellite

Ground track
Ground track

The orbit data is extracted from the following two-line orbital elements,

1 41922U 17003F   20266.03780715  .00000086  00000-0  23545-4 0  9993
2 41922  86.3954 243.4779 0002136  78.8449 281.2987 14.34218008193116
Epoch (UTC): 22 September 2020 00:54:26
Eccentricity: 0.0002136
inclination: 86.3954°
perigee height: 776 km
apogee height: 779 km
right ascension of ascending node: 243.4779°
argument of perigee: 78.8449°
revolutions per day: 14.34218008
mean anomaly at epoch: 281.2987°
orbit number at epoch: 19311

The dashed part of the orbit path shows where the satellite is in the earth's shadow,  

DLR